CAPE
1266 1289 1302 1215 1512 1497 1587 1727 1872 1947 1918 1859 1648 1868 2171 2602 2694 2865 2894 2749 2194 1903 1507 1697 1990 2342 2571 2596 2617 2784 2495 2681 2626 2515 2550 2785 2397 2061 1796 1548 1451 1403
1069 1177 1328 1238 1414 1525 1398 1200 1345 1761 1811 1653 1416 1153 1410 1838 2208 2189 2493 1877 1738 1593 1421 1275 1180 1095 1332 1601 2276 2867 2897 2807 2742 2826 2873 2949 2617 2112 1826 1652 1567 1562
1343 1216 1319 1308 1224 1353 1508 1453 1394 1407 1583 1656 1481 1412 1968 1866 1897 1973 2210 1989 1899 1746 1554 1463 1410 1444 1305 1212 1643 2349 2666 2819 2859 2782 2741 2888 2861 2388 1992 1917 1924 1933
1008 1167 1191 1255 1191 1223 1275 1178 1084 1069 1166 1216 1175 1153 1312 1437 1551 1637 1745 1974 1898 1734 1542 1427 1446 1397 1434 1593 1926 2210 2121 2087 2018 1918 1991 1941 2134 2668 2599 2420 2253 2182
1120 1114 1286 1284 1076 1055 1037 1027 988 949 1012 1105 1105 1186 1263 1337 1282 1572 1645 1716 1666 1426 1205 1170 1230 1449 1464 1728 1930 1745 1795 2308 1696 1507 1452 1483 1592 1688 1912 2431 2392 2321
1038 1002 1019 1142 1106 872 875 862 856 876 935 969 932 1006 1132 1150 1144 1315 1546 1607 1632 1596 1452 1302 1336 1715 1888 1942 1995 2558 2626 2244 1820 1283 1209 1024 1148 1202 1366 1501 1498 1565
806 1088 1218 1131 869 753 713 733 681 647 742 858 827 898 895 1054 1090 1108 1157 1206 1268 1341 1374 1343 1394 1460 1602 1709 2287 2394 2284 2122 2040 1864 1705 1528 1309 1058 1055 984 1090 1362
529 419 855 1138 920 845 763 716 669 606 671 707 694 714 767 734 720 801 793 780 906 982 1104 1246 1270 1240 1271 1616 1829 2168 2213 2128 1933 2047 1381 1139 1160 1218 1127 1100 1161 1185
242 297 340 366 644 657 676 558 538 617 693 695 641 568 648 670 724 672 727 634 675 730 880 940 974 1092 1367 1416 1504 1488 1652 1806 2043 1591 1192 1092 1112 1080 888 666 531 479
248 224 252 295 316 299 430 423 404 472 477 622 672 865 689 555 614 561 598 555 538 611 567 844 1169 1215 1394 1432 912 1255 1453 1398 1411 1591 1335 1192 888 702 730 788 766 771
237 243 248 252 227 190 163 151 191 276 329 363 410 410 590 828 701 685 925 673 778 869 782 850 1015 796 1052 1002 809 765 717 893 890 904 1160 1188 1139 1145 1136 896 755 624
5 58 21 109 109 118 91 101 123 52 48 190 307 408 395 364 425 922 690 983 1018 911 810 750 1078 1069 695 613 835 1125 898 851 978 1073 1013 1380 1233 1288 1190 1068 866 743
3 0 0 1 3 2 8 7 4 5 4 2 3 1 61 68 66 94 423 390 589 875 1002 836 823 1133 1190 1130 1040 791 734 677 703 712 847 962 1248 1329 1285 1214 1455 1332
2 0 0 0 0 0 0 0 0 0 0 0 0 0 1 0 0 5 33 17 239 302 312 616 825 946 1139 1205 1112 1053 882 904 760 667 742 978 1109 1003 919 820 804 920
0 0 0 2 0 0 1 0 0 0 1 0 0 0 0 0 0 0 0 0 0 5 15 68 308 737 581 626 822 709 519 672 623 830 749 834 849 947 994 916 820 830
0 0 0 0 0 1 0 0 0 1 0 0 0 0 0 0 0 0 0 0 0 0 0 36 152 191 0 0 0 0 33 133 482 683 645 615 656 720 835 911 1099 1235
0 0 0 0 0 0 0 0 0 0 1 1 1 0 0 0 0 0 0 0 0 0 0 1 88 0 0 0 0 0 0 0 0 0 0 10 10 10 24 185 761 990
0 0 0 0 0 0 0 0 0 0 0 0 0 0 0 0 0 0 0 0 0 0 0 0 0 0 0 0 0 0 0 0 0 0 0 0 0 0 0 0 0 5
0 0 0 0 0 0 0 0 0 0 0 0 0 0 0 0 0 0 0 0 0 0 0 0 23 10 0 0 0 0 0 0 0 0 0 0 0 0 0 0 0 0
0 0 0 0 0 0 0 0 0 0 0 0 0 0 0 0 0 0 0 0 0 0 0 0 1 2 0 0 0 0 0 0 0 0 0 0 0 0 0 0 0 0
0 0 0 0 0 0 0 0 0 0 0 0 0 0 0 0 0 0 0 0 0 0 0 0 0 0 0 0 0 0 0 0 0 0 0 0 0 0 0 0 0 0
0 0 0 0 0 0 0 0 0 0 0 0 0 0 0 0 0 1 0 0 0 0 0 0 1 6 0 0 0 0 0 0 0 0 0 0 0 0 0 0 0 0
0 0 0 0 0 0 0 0 0 0 0 0 0 4 3 3 4 3 3 4 2 4 2 0 0 0 0 0 0 0 0 0 0 0 0 0 0 0 0 2 4 4
0 0 0 0 0 0 0 0 0 0 1 2 2 3 4 5 4 0 3 3 6 6 6 5 1 0 0 0 0 0 0 0 0 0 0 3 4 10 7 4 9 42
0 0 0 0 0 0 0 0 0 0 2 5 6 5 5 4 4 1 2 4 6 8 8 10 8 6 11 6 5 7 7 2 2 3 3 2 0 0 0 0 0 0
0 1 0 0 0 0 0 0 2 1 4 5 6 1 1 2 6 3 5 2 8 5 7 7 3 6 20 14 9 6 4 0 0 6 1 0 0 0 0 0 0 0
Wind_Speed
18 18 22 21 21 23 23 21 19 16 14 15 16 17 17 18 19 21 23 28 35 38 38 36 33 30 26 24 24 24 24 23 22 21 19 19 19 19 16 14 14 14
18 12 18 18 18 21 21 19 16 16 16 16 17 19 19 18 16 16 19 21 24 29 30 30 31 35 34 30 25 24 24 24 23 24 23 22 22 21 18 16 14 15
15 14 18 20 19 19 20 18 17 16 16 17 18 15 16 17 18 17 13 11 12 16 20 21 24 27 25 22 22 23 22 21 21 24 25 26 26 23 20 19 17 15
18 13 17 19 19 20 21 18 14 13 15 16 15 15 17 18 13 10 11 7 7 10 15 18 17 20 22 21 20 21 20 18 19 23 25 25 25 26 23 22 18 16
20 15 14 18 20 21 21 18 15 13 12 11 10 12 17 17 11 10 12 7 4 6 8 10 9 9 10 12 15 16 14 13 20 23 17 16 23 26 27 27 24 20
24 22 19 19 24 24 23 19 16 14 13 12 11 10 12 10 7 9 11 9 6 6 7 8 9 9 10 11 13 15 16 16 18 22 17 16 23 30 34 37 32 29
26 25 24 22 24 25 24 24 24 22 18 15 18 14 12 8 5 7 12 12 9 6 7 8 8 8 11 11 14 15 15 16 18 18 21 22 23 26 30 32 32 31
31 29 28 27 28 26 26 27 30 29 23 18 15 19 18 12 9 10 16 14 10 7 7 7 7 9 10 12 12 15 17 20 19 21 21 20 21 21 27 31 33 31
32 32 34 34 32 32 30 30 29 27 25 21 17 18 19 18 17 13 13 15 14 11 8 8 10 11 14 15 16 18 19 21 23 21 20 20 20 21 21 24 29 31
34 33 34 35 35 35 35 32 33 33 31 27 25 26 23 24 22 22 16 15 15 13 11 10 13 16 17 21 23 22 23 22 24 25 23 22 22 20 19 22 26 29
35 34 35 35 35 35 35 33 34 34 32 29 32 30 30 29 28 25 24 23 17 16 16 16 18 19 23 25 24 21 23 22 24 23 22 23 23 24 22 22 22 25
nan nan nan 36 36 35 nan 34 34 nan nan 34 35 33 32 31 32 34 30 25 22 21 16 19 23 24 24 23 25 28 28 25 23 22 21 24 25 25 26 25 23 23
nan nan nan nan nan nan nan nan nan nan nan nan nan nan nan nan nan nan 34 32 29 28 27 26 27 30 30 29 29 29 27 29 26 24 22 22 24 26 28 29 29 28
nan nan nan nan nan nan nan nan nan nan nan nan nan nan nan nan nan nan nan nan 34 32 32 32 31 30 31 32 32 33 33 32 30 27 25 24 26 26 28 30 31 29
nan nan nan nan nan nan nan nan nan nan nan nan nan nan nan nan nan nan nan nan nan nan nan nan 35 39 38 38 38 37 36 34 34 30 28 26 26 27 30 32 33 32
nan nan nan nan nan nan nan nan nan nan nan nan nan nan nan nan nan nan nan nan nan nan nan nan 38 41 nan nan nan nan nan 39 38 36 32 30 30 30 32 34 35 36
nan nan nan nan nan nan nan nan nan nan nan nan nan nan nan nan nan nan nan nan nan nan nan nan nan nan nan nan nan nan nan nan nan nan nan nan nan nan nan 35 36 37
nan nan nan nan nan nan nan nan nan nan nan nan nan nan nan nan nan nan nan nan nan nan nan nan nan nan nan nan nan nan nan nan nan nan nan nan nan nan nan nan nan nan
nan nan nan nan nan nan nan nan nan nan nan nan nan nan nan nan nan nan nan nan nan nan nan nan nan nan nan nan nan nan nan nan nan nan nan nan nan nan nan nan nan nan
nan nan nan nan nan nan nan nan nan nan nan nan nan nan nan nan nan nan nan nan nan nan nan nan nan nan nan nan nan nan nan nan nan nan nan nan nan nan nan nan nan nan
nan nan nan nan nan nan nan nan nan nan nan nan nan nan nan nan nan nan nan nan nan nan nan nan nan nan nan nan nan nan nan nan nan nan nan nan nan nan nan nan nan nan
nan nan nan nan nan nan nan nan nan nan nan nan nan nan nan nan nan nan nan nan nan nan nan nan nan nan nan nan nan nan nan nan nan nan nan nan nan nan nan nan nan nan
nan nan nan nan nan nan nan nan nan nan nan nan nan nan nan nan nan nan nan nan nan nan nan nan nan nan nan nan nan nan nan nan nan nan nan nan nan nan nan nan nan nan
nan nan nan nan nan nan nan nan nan nan nan nan nan nan nan nan nan nan nan nan nan nan nan nan nan nan nan nan nan nan nan nan nan nan nan nan nan nan nan nan nan nan
nan nan nan nan nan nan nan nan nan nan nan nan nan nan nan nan nan nan nan nan nan nan nan nan nan nan nan nan nan nan nan nan nan nan nan nan nan nan nan nan nan nan
nan nan nan nan nan nan nan nan nan nan nan nan nan nan nan nan nan nan nan nan nan nan nan nan nan nan nan nan nan nan nan nan nan nan nan nan nan nan nan nan nan nan
Wind_Direction
223 190 190 200 186 194 189 191 196 193 192 191 196 205 213 226 228 228 232 234 234 230 220 214 217 224 228 232 238 242 251 258 261 261 266 266 268 274 278 281 268 256
236 210 206 203 200 195 189 189 188 187 186 192 195 190 185 191 206 218 229 234 233 235 233 228 221 218 212 213 226 238 244 254 260 261 264 267 264 267 270 275 273 263
242 222 214 210 205 201 198 196 192 185 180 185 189 190 190 199 215 222 222 223 218 210 218 234 246 250 248 238 226 234 242 251 259 258 260 262 263 260 261 263 263 269
243 231 212 209 211 204 201 198 198 187 184 185 191 194 198 194 207 223 234 216 204 194 199 205 215 230 237 235 234 235 229 229 241 241 240 241 251 258 258 256 256 255
248 245 222 212 219 216 205 198 200 199 198 205 207 202 206 198 197 222 241 235 234 219 217 212 221 241 234 227 238 233 234 245 259 256 260 259 251 248 246 242 237 236
244 244 239 222 223 218 212 220 225 226 221 225 237 231 228 221 199 226 248 261 255 248 244 236 232 232 234 239 257 263 263 261 259 268 279 283 276 265 257 252 243 237
238 241 240 236 232 229 221 218 228 238 241 245 254 257 255 247 223 245 267 274 276 263 250 249 248 238 237 247 264 266 271 274 272 273 278 281 278 269 262 256 253 252
233 230 237 239 243 242 233 229 231 232 233 239 257 271 277 269 248 257 276 282 284 274 267 268 269 267 263 270 272 273 272 276 278 282 282 286 286 279 260 244 243 247
237 237 233 229 235 241 243 249 255 262 261 263 253 245 253 259 254 254 267 279 282 278 271 279 286 287 282 280 277 274 276 274 277 279 283 285 288 286 272 252 243 244
237 239 240 240 239 240 237 237 245 246 253 264 277 275 274 277 282 277 264 248 238 239 251 269 277 273 276 274 266 264 265 269 269 271 277 279 280 280 277 266 257 250
236 237 242 243 243 245 246 244 245 247 248 244 249 252 262 275 277 275 273 263 262 252 243 246 254 255 255 261 269 277 283 279 278 278 280 286 284 282 283 281 275 262
nan nan nan 241 244 245 nan 246 250 nan nan 249 248 249 249 251 263 280 282 281 277 274 277 274 277 277 281 280 280 276 278 284 291 289 288 287 287 287 286 285 281 278
nan nan nan nan nan nan nan nan nan nan nan nan nan nan nan nan nan nan 264 270 273 274 276 280 277 279 280 281 281 283 284 286 287 287 284 281 281 277 275 276 278 279
nan nan nan nan nan nan nan nan nan nan nan nan nan nan nan nan nan nan nan nan 257 260 264 270 274 274 274 274 277 279 279 279 281 280 280 284 279 274 276 278 277 276
nan nan nan nan nan nan nan nan nan nan nan nan nan nan nan nan nan nan nan nan nan nan nan nan 262 264 264 266 267 270 276 279 278 276 275 277 277 277 279 283 281 278
nan nan nan nan nan nan nan nan nan nan nan nan nan nan nan nan nan nan nan nan nan nan nan nan 264 269 nan nan nan nan nan 271 274 276 275 273 271 272 276 279 278 276
nan nan nan nan nan nan nan nan nan nan nan nan nan nan nan nan nan nan nan nan nan nan nan nan nan nan nan nan nan nan nan nan nan nan nan nan nan nan nan 269 273 276
nan nan nan nan nan nan nan nan nan nan nan nan nan nan nan nan nan nan nan nan nan nan nan nan nan nan nan nan nan nan nan nan nan nan nan nan nan nan nan nan nan nan
nan nan nan nan nan nan nan nan nan nan nan nan nan nan nan nan nan nan nan nan nan nan nan nan nan nan nan nan nan nan nan nan nan nan nan nan nan nan nan nan nan nan
nan nan nan nan nan nan nan nan nan nan nan nan nan nan nan nan nan nan nan nan nan nan nan nan nan nan nan nan nan nan nan nan nan nan nan nan nan nan nan nan nan nan
nan nan nan nan nan nan nan nan nan nan nan nan nan nan nan nan nan nan nan nan nan nan nan nan nan nan nan nan nan nan nan nan nan nan nan nan nan nan nan nan nan nan
nan nan nan nan nan nan nan nan nan nan nan nan nan nan nan nan nan nan nan nan nan nan nan nan nan nan nan nan nan nan nan nan nan nan nan nan nan nan nan nan nan nan
nan nan nan nan nan nan nan nan nan nan nan nan nan nan nan nan nan nan nan nan nan nan nan nan nan nan nan nan nan nan nan nan nan nan nan nan nan nan nan nan nan nan
nan nan nan nan nan nan nan nan nan nan nan nan nan nan nan nan nan nan nan nan nan nan nan nan nan nan nan nan nan nan nan nan nan nan nan nan nan nan nan nan nan nan
nan nan nan nan nan nan nan nan nan nan nan nan nan nan nan nan nan nan nan nan nan nan nan nan nan nan nan nan nan nan nan nan nan nan nan nan nan nan nan nan nan nan
nan nan nan nan nan nan nan nan nan nan nan nan nan nan nan nan nan nan nan nan nan nan nan nan nan nan nan nan nan nan nan nan nan nan nan nan nan nan nan nan nan nan